Simultaneous Nadir Overpasses (SNOs) Predictions

Prediction of SNOs between GOES-15 and TERRA Satellite Orbit:

Table of predicted SNOs for the next 14.0 days since TLE Epoch: 1/10/2025
Index Date Time (GOES-15) GOES-15 Lat,Lon TERRA Lat,Lon Distance(km) Time Diff (sec)
1 01/11/2025 05:40:35 -0.03, 61.42 0.66, 58.01 387.28 80
2 01/13/2025 05:24:43 -0.03, 61.44 -0.25, 62.48 118.48 80
3 01/13/2025 17:44:30 0.03, 61.46 -0.75, 57.67 430.41 80
4 01/15/2025 17:23:18 0.03, 61.48 0.19, 62.13 75.01 80
5 01/16/2025 05:42:54 -0.02, 61.47 0.84, 57.37 466.53 80
6 01/18/2025 05:27:01 -0.02, 61.49 -0.07, 61.84 40.00 80
7 01/20/2025 17:28:15 0.01, 61.52 0.04, 61.50 3.45 80
8 01/23/2025 05:26:36 -0.02, 61.55 0.08, 61.21 39.13 80
